CAPE
0 0 0 0 0 0 0 0 0 0 0 0 0 0 0 0 0 4 6 5 7 8 9 7 13 25 18 8 10 10 13 18 9 7 26 33 66 84
0 0 0 0 0 0 0 0 0 0 0 0 0 1 2 0 0 8 11 6 6 7 11 10 8 11 17 19 17 14 11 9 7 3 11 9 36 128
0 0 0 0 0 0 0 0 0 0 1 0 1 3 3 8 6 10 9 12 16 11 12 10 5 1 5 6 8 6 5 5 4 2 5 5 8 28
0 0 0 0 0 0 0 0 0 1 4 5 3 5 6 7 13 11 6 6 14 8 5 0 0 4 1 3 3 3 1 1 2 0 2 2 3 4
0 0 0 0 0 0 0 0 2 1 4 11 4 9 12 9 8 9 10 7 10 5 3 1 4 3 2 5 4 4 0 1 0 0 0 0 0 0
0 0 0 0 0 0 0 1 1 5 5 4 6 9 9 6 8 7 3 10 2 5 2 0 1 1 1 2 2 3 4 2 0 0 0 0 0 0
0 0 0 0 0 0 1 3 4 6 3 6 9 8 8 6 6 5 4 5 2 5 5 10 9 16 5 2 6 7 4 2 1 0 0 0 0 1
0 0 0 1 0 0 0 0 0 5 4 10 9 8 6 9 8 5 2 2 1 6 3 6 14 14 6 5 9 7 0 0 0 0 0 0 1 1
0 0 0 0 1 2 0 0 0 0 0 6 8 6 7 6 6 4 6 7 5 1 10 4 12 19 8 3 7 7 0 0 0 0 1 0 1 1
0 0 0 2 2 2 3 3 2 4 3 6 8 6 7 6 8 8 7 2 3 4 8 11 8 11 15 6 4 7 1 0 0 0 0 1 0 0
2 3 2 2 0 0 3 22 15 30 1 0 0 0 0 1 3 6 3 3 6 17 10 10 2 5 5 1 1 7 7 0 0 0 0 0 0 0
5 2 0 2 0 0 3 4 26 35 14 17 15 3 1 3 2 6 7 6 7 8 8 8 2 14 32 0 2 2 2 5 1 0 0 0 0 0
7 5 8 0 0 0 0 17 32 18 5 14 21 21 21 24 14 11 5 7 8 7 4 9 3 13 7 13 14 6 4 2 0 0 1 1 0 0
7 8 3 0 0 0 2 0 0 4 29 41 42 23 12 3 10 25 22 12 8 8 4 10 10 7 8 8 8 6 4 1 3 2 0 2 4 2
3 2 0 0 0 0 0 0 0 9 13 4 4 7 2 4 8 19 15 8 15 4 2 7 9 16 13 7 10 5 5 4 3 2 2 1 0 0
1 1 0 0 0 1 1 2 11 11 7 5 2 5 7 3 4 6 6 6 8 5 3 3 6 6 9 8 7 5 7 3 5 2 1 3 4 5
4 5 12 11 10 11 4 4 4 4 9 6 2 4 7 6 6 5 3 5 7 7 4 4 6 11 14 12 7 10 10 8 11 8 3 5 9 10
3 12 13 15 10 9 5 5 5 3 4 4 5 3 5 6 7 7 8 9 8 7 6 3 2 10 7 12 11 10 10 8 8 8 5 6 9 10
8 7 10 17 12 10 6 5 4 4 1 1 1 2 6 5 6 7 8 9 8 7 3 4 5 7 10 6 13 8 10 10 8 7 8 8 13 12
7 6 11 7 5 4 4 6 6 4 3 3 2 2 6 7 7 8 9 10 8 7 6 5 6 7 12 12 12 15 5 9 7 9 14 18 21 5
5 3 3 2 2 1 4 3 9 8 6 5 5 2 2 5 4 8 8 0 2 9 8 5 9 2 10 9 13 14 13 6 4 5 9 7 9 13
4 2 3 2 2 2 6 6 5 5 6 9 16 6 3 9 8 9 11 14 12 8 3 5 15 16 16 6 13 13 14 17 13 4 1 0 8 13
6 4 4 2 3 3 1 1 1 2 2 6 3 8 1 4 8 10 10 10 9 8 5 3 16 13 15 12 9 15 14 15 16 17 9 0 0 0
CIN
-0 -0 -0 -0 -0 -0 -0 -0 -0 -0 -0 -0 -0 -0 -0 -0 -0 -0 -0 -0 -0 -0 -0 -0 -1 -0 -0 -0 -0 -0 -0 -0 -0 -0 -8 -5 -0 -0
-0 -0 -0 -0 -0 -0 -0 -0 -0 -0 -0 -0 -0 -0 -0 -0 -0 -0 -0 -0 -0 -0 -0 -0 -0 -3 -0 -0 -0 -0 -0 -0 -0 -0 -0 -2 -3 -0
-0 -0 -0 -0 -0 -0 -0 -0 -0 -0 -0 -0 -0 -0 -0 -0 -0 -0 -0 -0 -0 -0 -0 -0 -0 -0 -0 -0 -0 -0 -0 -0 -0 -0 -0 -0 -0 -1
-0 -0 -0 -0 -0 -0 -0 -0 -0 -0 -0 -0 -0 -0 -0 -0 -0 -0 -0 -0 -0 -0 -0 -0 -0 -0 -0 -0 -0 -0 -0 -0 -0 -0 -0 -0 -0 -0
-0 -0 -0 -0 -0 -0 -0 -0 -0 -0 -0 -0 -0 -0 -0 -0 -0 -0 -0 -0 -0 -0 -0 -0 -1 -0 -0 -0 -0 -0 -1 -0 -0 -0 -0 -0 -0 -0
-0 -0 -0 -0 -0 -0 -0 -0 -0 -0 -0 -0 -0 -0 -0 -0 -0 -0 -0 -0 -0 -0 -0 -1 -2 -0 -0 -0 -0 -0 -0 -0 -0 -0 -0 -0 -0 -0
-0 -0 -0 -0 -0 -0 -0 -0 -0 -0 -0 -0 -0 -0 -0 -0 -0 -0 -0 -0 -0 -0 -0 -0 -0 -0 -0 -0 -0 -0 -0 -0 -0 -0 -0 -0 -0 -0
-0 -0 -0 -0 -0 -0 -0 -0 -0 -0 -0 -0 -0 -0 -0 -0 -0 -0 -0 -0 -0 -0 -0 -0 -0 -0 -0 -0 -0 -0 -0 -0 -0 -0 -0 -0 -0 -0
-0 -0 -0 -0 -0 -0 -0 -0 -0 -0 -0 -0 -0 -0 -0 -0 -0 -0 -0 -0 -0 -0 -0 -0 -0 -0 -0 -0 -0 -0 -0 -0 -0 -0 -0 -0 -0 -0
-0 -0 -0 -0 -0 -0 -0 -0 -0 -0 -0 -0 -0 -0 -0 -0 -0 -0 -0 -0 -0 -0 -0 -0 -0 -0 -0 -0 -0 -0 -0 -0 -0 -0 -0 -0 -0 -0
-0 -0 -0 -0 -0 -0 -0 -0 -0 -0 -0 -0 -0 -0 -0 -0 -0 -0 -0 -0 -0 -0 -0 -0 -0 -0 -0 -0 -0 -0 -0 -0 -0 -0 -0 -0 -0 -0
-0 -0 -0 -0 -0 -0 -0 -0 -0 -0 -0 -0 -0 -0 -0 -0 -0 -0 -0 -0 -0 -0 -0 -0 -0 -0 -0 -0 -0 -0 -0 -0 -0 -0 -0 -0 -0 -0
-0 -0 -0 -0 -0 -0 -0 -0 -0 -0 -0 -0 -0 -0 -0 -0 -0 -0 -0 -0 -0 -0 -0 -0 -0 -0 -0 -0 -0 -0 -0 -0 -0 -0 -0 -0 -0 -0
-0 -0 -0 -0 -0 -0 -0 -0 -0 -0 -0 -0 -0 -0 -0 -0 -0 -0 -0 -0 -0 -0 -0 -0 -0 -0 -0 -0 -0 -0 -0 -0 -0 -0 -0 -0 -0 -0
-0 -0 -0 -0 -0 -0 -0 -0 -0 -0 -0 -0 -0 -0 -0 -0 -0 -0 -0 -0 -0 -0 -0 -0 -0 -0 -0 -0 -0 -0 -0 -0 -0 -0 -0 -0 -0 -0
-0 -0 -0 -0 -0 -0 -0 -0 -0 -0 -0 -0 -0 -0 -0 -0 -0 -0 -0 -0 -0 -0 -0 -0 -0 -0 -0 -0 -0 -0 -0 -0 -0 -0 -0 -0 -0 -0
-0 -0 -0 -0 -0 -0 -0 -0 -0 -0 -0 -0 -0 -0 -0 -0 -0 -0 -0 -0 -0 -0 -0 -0 -0 -0 -0 -0 -0 -0 -0 -0 -0 -0 -0 -0 -0 -0
-0 -0 -0 -0 -0 -0 -0 -0 -0 -0 -0 -0 -0 -0 -0 -0 -0 -0 -0 -0 -0 -0 -0 -0 -0 -0 -0 -0 -0 -0 -0 -0 -0 -0 -0 -0 -0 -0
-0 -0 -0 -0 -0 -0 -0 -0 -0 -0 -0 -0 -0 -0 -0 -0 -0 -0 -0 -0 -0 -0 -0 -0 -0 -0 -0 -0 -0 -0 -0 -0 -0 -0 -0 -0 -0 -0
-0 -0 -0 -0 -0 -0 -0 -0 -0 -0 -0 -0 -0 -0 -0 -0 -0 -0 -0 -0 -0 -0 -0 -0 -0 -0 -0 -0 -0 -0 -0 -0 -0 -0 -0 -0 -0 -0
-0 -0 -0 -0 -0 -0 -0 -0 -0 -0 -0 -0 -0 -0 -0 -0 -0 -0 -0 -0 -0 -0 -0 -0 -0 -0 -0 -0 -0 -0 -0 -0 -0 -0 -0 -0 -0 -0
-0 -0 -0 -0 -0 -0 -0 -0 -0 -0 -0 -0 -0 -0 -0 -0 -0 -0 -0 -0 -0 -0 -0 -0 -0 -0 -0 -0 -0 -0 -0 -0 -0 -0 -0 -0 -0 -0
-0 -0 -0 -0 -0 -0 -0 -0 -0 -0 -0 -0 -0 -0 -0 -0 -0 -0 -0 -0 -0 -0 -0 -0 -0 -0 -0 -0 -0 -0 -0 -0 -0 -0 -0 -0 -0 -0
Wind_Speed
8 7 6 5 4 3 3 3 2 4 4 1 4 4 10 10 13 15 15 19 22 21 22 24 24 24 24 24 23 24 24 24 25 25 24 24 26 29
5 8 7 5 5 4 3 4 4 4 5 2 5 10 11 11 13 15 15 21 19 20 20 21 23 24 24 25 24 24 25 25 25 24 25 24 24 24
9 7 8 8 5 4 4 4 4 4 6 7 5 9 12 15 15 14 14 14 11 19 20 21 21 22 22 23 23 24 24 25 23 23 22 23 21 21
10 9 8 6 6 5 4 4 4 4 5 10 8 7 11 12 15 15 12 11 12 16 19 20 21 20 19 20 20 20 22 22 19 19 18 20 19 20
9 9 9 8 7 5 4 4 3 3 4 5 7 7 9 8 10 10 9 11 10 17 16 16 17 17 20 19 21 20 17 15 15 14 13 15 14 16
9 8 8 7 7 6 5 3 3 3 4 6 7 7 6 6 7 8 7 7 9 9 9 12 12 16 16 20 21 20 22 18 11 12 11 14 11 12
10 9 8 6 6 4 3 3 3 4 4 5 5 5 5 4 6 4 7 8 10 1 8 11 9 10 11 16 17 26 27 21 13 12 12 14 15 11
10 8 8 10 9 7 5 1 3 5 6 4 5 5 6 6 4 7 7 5 5 1 6 10 7 9 8 9 23 30 17 11 12 11 12 12 11 12
9 10 8 6 6 5 5 5 5 6 8 7 7 6 5 3 8 8 7 5 4 6 8 8 6 9 9 10 25 30 19 10 10 12 10 7 7 11
8 7 7 7 5 3 2 2 4 4 5 5 7 7 6 7 7 8 8 6 6 3 5 5 4 7 8 9 24 30 24 14 8 8 7 13 20 24
5 7 6 6 5 2 1 1 3 3 4 8 9 7 5 6 6 5 4 5 4 1 3 3 4 7 5 9 12 26 29 26 12 9 16 20 28 34
7 6 6 4 5 5 1 1 2 1 4 4 2 2 3 4 6 4 4 4 4 3 3 5 5 5 4 4 10 12 12 27 31 18 28 30 26 15
7 5 4 7 7 5 4 1 0 2 3 4 2 2 2 2 3 3 3 3 3 2 4 3 4 4 3 3 4 10 11 12 12 14 24 21 27 24
6 5 6 10 9 7 4 3 3 2 1 2 1 3 3 4 4 4 3 3 2 3 7 6 4 4 2 3 4 6 9 11 9 9 11 19 29 26
7 8 10 10 9 6 7 6 3 2 1 1 2 2 3 4 6 3 2 1 2 6 7 7 5 4 4 4 3 5 4 8 9 7 10 12 11 11
9 8 6 6 5 5 3 4 2 3 3 2 2 3 3 3 3 4 3 1 3 5 9 11 8 5 5 7 6 6 5 4 6 7 11 11 11 11
9 7 7 5 5 4 4 3 3 3 3 1 2 3 3 3 3 3 4 4 5 4 6 7 10 12 10 6 6 7 6 8 7 7 10 12 11 10
8 7 6 5 5 4 4 3 3 3 3 1 2 2 2 3 3 4 4 4 4 4 4 3 3 4 5 10 13 6 6 7 7 9 10 12 11 10
7 7 6 5 5 4 4 3 3 2 2 2 3 2 2 2 3 4 4 4 4 4 5 4 3 2 4 6 4 13 6 6 7 8 9 10 11 10
7 7 7 6 5 4 3 3 3 3 3 2 2 2 2 3 3 4 4 4 4 4 5 6 5 4 5 4 5 7 10 6 8 10 11 11 13 19
7 7 6 5 5 4 3 3 3 3 2 2 2 2 2 3 3 3 4 4 3 5 7 6 6 7 8 7 8 8 9 14 9 10 11 11 11 10
7 7 6 5 5 4 3 3 3 2 2 2 3 3 2 2 3 3 3 5 5 5 6 5 5 6 6 9 10 11 10 10 14 17 15 10 5 6
8 7 6 6 5 4 4 3 3 2 2 3 3 3 2 2 3 4 4 5 5 6 6 7 7 8 8 8 10 10 13 10 7 8 9 13 20 24
Wind_Direction
134 131 144 134 139 137 154 180 230 292 299 263 304 321 328 326 325 318 315 316 316 310 311 308 307 308 306 302 298 296 293 293 294 291 293 288 285 278
144 148 141 143 134 143 168 187 202 247 275 281 296 316 326 319 323 320 318 314 313 308 307 310 307 306 305 303 300 296 294 292 294 292 291 288 298 285
146 147 148 148 153 164 180 198 210 222 260 291 297 314 322 324 325 325 318 317 308 307 309 310 309 306 305 300 297 294 291 288 288 286 284 287 298 305
148 161 150 147 159 177 191 192 225 236 273 289 311 319 324 320 318 315 312 308 306 305 310 306 302 306 308 308 305 299 286 279 278 281 283 289 295 309
160 163 161 161 171 175 180 201 227 259 273 285 295 316 316 320 316 312 309 301 305 308 309 304 304 311 320 323 321 311 296 286 280 276 285 283 280 295
153 165 154 169 170 174 186 204 237 263 281 287 298 308 313 320 310 311 318 309 315 312 314 303 311 317 328 327 325 324 324 311 259 269 274 280 276 277
168 148 146 166 151 146 178 188 234 264 272 287 295 291 291 315 321 307 305 311 319 311 321 334 336 336 339 332 327 325 309 290 281 272 287 287 281 250
157 137 154 162 147 144 129 110 272 268 270 280 284 288 293 302 300 310 306 316 341 3 340 319 326 337 335 333 333 329 318 262 260 268 274 278 283 228
148 162 162 158 157 158 172 217 235 247 254 274 270 277 289 306 306 295 301 300 296 317 329 304 320 329 352 339 346 344 330 293 260 257 253 239 144 115
156 150 148 146 147 148 202 275 294 289 270 252 261 273 278 300 297 293 290 288 276 272 343 290 331 316 340 351 354 358 360 338 292 241 189 146 121 113
140 141 135 135 138 168 120 8 313 284 283 286 277 285 315 322 332 318 338 325 319 325 38 301 319 314 320 357 354 2 16 20 16 124 108 129 125 118
138 136 135 132 156 140 100 1 323 333 314 302 276 305 327 315 353 13 331 331 326 297 51 325 319 350 334 21 360 359 11 22 35 71 108 109 111 106
140 146 139 155 140 125 93 79 279 297 292 297 312 329 322 325 5 359 354 354 341 293 1 306 306 335 21 345 3 2 15 22 34 41 51 78 99 112
140 144 150 151 137 119 104 77 63 30 305 329 343 3 350 353 349 351 344 8 1 310 313 313 293 336 35 17 22 357 15 26 29 51 64 64 72 78
133 143 142 135 124 103 95 84 64 75 67 54 11 355 337 332 319 300 272 323 45 20 1 355 4 357 28 72 64 33 2 26 25 46 62 61 69 75
132 133 123 117 100 103 99 84 86 75 52 33 341 337 344 3 335 337 2 335 16 28 30 23 26 37 65 65 81 64 14 65 27 48 70 67 62 61
129 133 139 132 126 127 104 94 86 76 73 40 10 8 15 16 18 12 31 46 57 31 32 40 52 61 57 62 73 69 74 75 65 69 82 79 63 66
145 142 130 132 140 130 131 115 94 92 74 55 45 29 11 26 37 42 46 45 50 41 43 40 56 100 89 61 45 84 79 78 73 71 76 86 81 73
139 133 138 142 133 130 122 119 106 78 92 59 36 36 9 59 45 52 52 52 49 44 31 13 19 55 100 91 67 40 92 91 93 80 81 83 94 98
141 138 141 133 125 122 115 116 104 97 81 58 56 37 30 58 59 68 63 54 57 56 60 46 46 61 99 86 99 73 45 94 99 100 101 93 87 93
135 127 125 122 116 101 95 84 81 80 76 72 67 64 25 73 74 70 85 57 61 67 65 56 57 73 105 106 98 88 73 72 81 108 114 109 113 118
125 121 120 118 114 118 113 100 95 87 87 92 80 67 32 66 87 76 79 84 74 76 75 77 97 103 101 99 97 96 93 89 75 72 62 61 117 127
131 128 122 120 120 118 116 111 108 103 85 94 110 94 78 79 75 88 92 83 82 83 88 91 95 95 93 96 100 103 106 102 105 94 74 85 99 96